OBJECT AY, 68462

Orbit data source: Space-Track

You're viewing an Uncataloged Satellite

Recently launched and/or uncataloged satellites may have evolving metadata. Metadata may include but not limited to: Owner, Maufacturer, Bus, Motor, and Mission.

OBJECT AY, 68462 is a satellite in SSO that was launched on Mon, 30 Mar 2026 UTC via an FALCON 9 launch vehicle from the Air Force Western Test Range (AFWTR). Unknown objects in Earth's orbit typically refer to objects detected orbiting the Earth but have not yet been identified or cataloged. These objects could be anything from previously untracked satellites, spent rocket stages, debris from satellite collisions, or even natural meteoroids temporarily captured by Earth's gravity.

Loading next visibility...
Identifier
68462, 2026-067AY
Orbit
SSO
Country
Flag of TBDTBD
Related business
None
Manufacturer
Unknown
Mission
Operational spacecraft
Bus & Motor
Unknown
Mass
Unknown
Launch date (UTC)
2026-03-30 (1 month ago)
Launch vehicle
FALCON 9
Launch site
Air Force Western Test Range (AFWTR)
Object type
Unknown
Shape & HBR
Unknown shape, 1.1 m
Radar Cross Section
RCS unknown

Expand to show TLE details & history
Last TLE update: 13 hours ago

TLE from 13 hours ago
0 OBJECT AY
1 68462U 26067AY  26127.14287743  .00006113  00000-0  30232-3 0  9995
2 68462  97.4537  86.2218 0003540 135.3570 224.7950 15.18178378  5717
Epoch: 2026-05-07T03:25Z
TLE epoch observation values (Epoch: 2026-05-07T03:25:44.609Z)
Latitude
-0.00001°
Longitude
169.79268°
Altitude
516.164 km
Speed
7.605 km/s
True Right ascension
05h 44m 53s
True Declination
0° 00' 00"
Sunlit
Object was in daylight at epoch
Visualization orbit readout
Latitude
Unknown
Longitude
Unknown
Altitude
Unknown
Speed
Unknown
Apparent Right ascension
Unknown
Apparent Declination
Unknown
Sunlit
N/A
Visualization observer readout
Local Sidereal Time
00:08:43
Azimuth
Unknown
Elevation
Unknown
Doppler factor
Unknown
Orbital elements
Apogee altitude
510.754 km
Perigee altitude
505.879 km
Semi-major axis
6,886.453 km
Eccentricity
0.00035
Inclination
97.4537°
RAAN
86.2218°
Arg. of periapsis
135.357°
True anomaly
224.76643°
Mean anomaly
224.795°
Eccentric anomaly
224.78071°
Mean motion
3.79795 °/min
Orbital period
94.79 mins
BSTAR
0.00030232
Loading maneuver chart data...
Computing Atmospheric mass density...
Loading historical data...
Loading historical data...
Loading historical data...
Loading historical data...
Loading historical data...
Loading historical data...
Loading historical data...

Documentation

Showing up to 5 results
|